Time,TemperatureF,DewpointF,PressureIn,WindDirection,WindDirectionDegrees,WindSpeedMPH,WindSpeedGustMPH,Humidity,HourlyPrecipIn,Conditions,Clouds,dailyrainin,SolarRadiationWatts/m^2,SoftwareType,DateUTC
2013-03-09 00:21:00,25.0,24.0,-100.00,SW,231,5.0,9.0,94,0.00,,,0.00,0.000000,,2013-03-09 07:21:00,
2013-03-09 00:31:00,25.0,24.0,-100.00,SW,231,5.0,9.0,94,0.00,,,0.00,0.000000,,2013-03-09 07:31:00,
2013-03-09 00:41:00,25.0,24.0,-100.00,SW,231,5.0,9.0,94,0.00,,,0.00,0.000000,,2013-03-09 07:41:00,
2013-03-09 00:51:00,25.0,24.0,-100.00,SW,231,5.0,9.0,94,0.00,,,0.00,0.000000,,2013-03-09 07:51:00,
2013-03-09 01:21:00,24.0,22.0,-100.00,SW,219,4.0,11.0,93,0.00,,,0.00,1.000000,,2013-03-09 08:21:00,
2013-03-09 01:31:00,24.0,22.0,-100.00,SW,219,4.0,11.0,93,0.00,,,0.00,1.000000,,2013-03-09 08:31:00,
2013-03-09 01:41:00,24.0,22.0,-100.00,SW,219,4.0,11.0,93,0.00,,,0.00,1.000000,,2013-03-09 08:41:00,
2013-03-09 01:52:00,24.0,22.0,-100.00,SW,219,4.0,11.0,93,0.00,,,0.00,1.000000,,2013-03-09 08:52:00,
2013-03-09 02:21:00,24.0,23.0,-100.00,SSE,164,4.0,7.0,95,0.00,,,0.00,0.000000,,2013-03-09 09:21:00,
2013-03-09 02:31:00,24.0,23.0,-100.00,SSE,164,4.0,7.0,95,0.00,,,0.00,0.000000,,2013-03-09 09:31:00,
2013-03-09 02:41:00,24.0,23.0,-100.00,SSE,164,4.0,7.0,95,0.00,,,0.00,0.000000,,2013-03-09 09:41:00,
2013-03-09 02:52:00,24.0,23.0,-100.00,SSE,164,4.0,7.0,95,0.00,,,0.00,0.000000,,2013-03-09 09:52:00,
2013-03-09 03:21:00,24.0,23.0,-100.00,SSE,155,7.0,8.0,95,0.00,,,0.00,0.000000,,2013-03-09 10:21:00,
2013-03-09 03:31:00,24.0,23.0,-100.00,SSE,155,7.0,8.0,95,0.00,,,0.00,0.000000,,2013-03-09 10:31:00,
2013-03-09 03:41:00,24.0,23.0,-100.00,SSE,155,7.0,8.0,95,0.00,,,0.00,0.000000,,2013-03-09 10:41:00,
2013-03-09 03:51:00,24.0,23.0,-100.00,SSE,155,7.0,8.0,95,0.00,,,0.00,0.000000,,2013-03-09 10:51:00,
2013-03-09 04:21:00,23.0,21.0,-100.00,South,183,4.0,7.0,93,0.00,,,0.00,0.000000,,2013-03-09 11:21:00,
2013-03-09 04:32:00,23.0,21.0,-100.00,South,183,4.0,7.0,93,0.00,,,0.00,0.000000,,2013-03-09 11:32:00,
2013-03-09 04:41:00,23.0,21.0,-100.00,South,183,4.0,7.0,93,0.00,,,0.00,0.000000,,2013-03-09 11:41:00,
2013-03-09 04:52:00,23.0,21.0,-100.00,South,183,4.0,7.0,93,0.00,,,0.00,0.000000,,2013-03-09 11:52:00,
2013-03-09 05:21:00,22.0,20.0,-100.00,NNW,331,1.0,8.0,92,0.00,,,0.00,0.000000,,2013-03-09 12:21:00,
2013-03-09 05:32:00,22.0,20.0,-100.00,NNW,331,1.0,8.0,92,0.00,,,0.00,0.000000,,2013-03-09 12:32:00,
2013-03-09 05:42:00,22.0,20.0,-100.00,NNW,331,1.0,8.0,92,0.00,,,0.00,0.000000,,2013-03-09 12:42:00,
2013-03-09 05:52:00,22.0,20.0,-100.00,NNW,331,1.0,8.0,92,0.00,,,0.00,0.000000,,2013-03-09 12:52:00,
2013-03-09 06:21:00,23.0,21.0,-100.00,WNW,294,5.0,7.0,91,0.00,,,0.00,0.000000,,2013-03-09 13:21:00,
2013-03-09 06:31:00,23.0,21.0,-100.00,WNW,294,5.0,7.0,91,0.00,,,0.00,0.000000,,2013-03-09 13:31:00,
2013-03-09 06:41:00,23.0,21.0,-100.00,WNW,294,5.0,7.0,91,0.00,,,0.00,0.000000,,2013-03-09 13:41:00,
2013-03-09 06:51:00,23.0,21.0,-100.00,WNW,294,5.0,7.0,91,0.00,,,0.00,0.000000,,2013-03-09 13:51:00,
2013-03-09 07:21:00,23.0,21.0,-100.00,West,271,6.0,12.0,91,0.00,,,0.00,1.000000,,2013-03-09 14:21:00,
2013-03-09 07:31:00,23.0,21.0,-100.00,West,271,6.0,12.0,91,0.00,,,0.00,1.000000,,2013-03-09 14:31:00,
2013-03-09 07:41:00,23.0,21.0,-100.00,West,271,6.0,12.0,91,0.00,,,0.00,1.000000,,2013-03-09 14:41:00,
2013-03-09 07:52:00,23.0,21.0,-100.00,West,271,6.0,12.0,91,0.00,,,0.00,1.000000,,2013-03-09 14:52:00,
2013-03-09 08:22:00,24.0,22.0,-100.00,NW,306,4.0,7.0,91,0.00,,,0.00,14.000000,,2013-03-09 15:22:00,
2013-03-09 08:31:00,24.0,22.0,-100.00,NW,306,4.0,7.0,91,0.00,,,0.00,14.000000,,2013-03-09 15:31:00,
2013-03-09 08:42:00,24.0,22.0,-100.00,NW,306,4.0,7.0,91,0.00,,,0.00,14.000000,,2013-03-09 15:42:00,
2013-03-09 08:52:00,24.0,22.0,-100.00,NW,306,4.0,7.0,91,0.00,,,0.00,14.000000,,2013-03-09 15:52:00,
2013-03-09 09:21:00,26.0,23.0,-100.00,WNW,285,4.0,7.0,88,0.00,,,0.00,58.000000,,2013-03-09 16:21:00,
2013-03-09 09:31:00,26.0,23.0,-100.00,WNW,285,4.0,7.0,88,0.00,,,0.00,58.000000,,2013-03-09 16:31:00,
2013-03-09 09:41:00,26.0,23.0,-100.00,WNW,285,4.0,7.0,88,0.00,,,0.00,58.000000,,2013-03-09 16:41:00,
2013-03-09 09:51:00,26.0,23.0,-100.00,WNW,285,4.0,7.0,88,0.00,,,0.00,58.000000,,2013-03-09 16:51:00,
2013-03-09 10:22:00,27.0,23.0,-100.00,WNW,295,7.0,10.0,86,0.00,,,0.00,110.000000,,2013-03-09 17:22:00,
2013-03-09 10:32:00,27.0,23.0,-100.00,WNW,295,7.0,10.0,86,0.00,,,0.00,110.000000,,2013-03-09 17:32:00,
2013-03-09 10:42:00,27.0,23.0,-100.00,WNW,295,7.0,10.0,86,0.00,,,0.00,110.000000,,2013-03-09 17:42:00,
2013-03-09 10:52:00,27.0,23.0,-100.00,WNW,295,7.0,10.0,86,0.00,,,0.00,110.000000,,2013-03-09 17:52:00,
2013-03-09 11:21:00,26.0,22.0,-100.00,West,270,6.0,13.0,86,0.00,,,0.00,191.000000,,2013-03-09 18:21:00,
2013-03-09 11:31:00,26.0,22.0,-100.00,West,270,6.0,13.0,86,0.00,,,0.00,191.000000,,2013-03-09 18:31:00,
2013-03-09 11:42:00,26.0,22.0,-100.00,West,270,6.0,13.0,86,0.00,,,0.00,191.000000,,2013-03-09 18:42:00,
2013-03-09 11:51:00,26.0,22.0,-100.00,West,270,6.0,13.0,86,0.00,,,0.00,191.000000,,2013-03-09 18:51:00,
2013-03-09 12:22:00,25.0,21.0,-100.00,WSW,257,6.0,14.0,84,0.00,,,0.00,276.000000,,2013-03-09 19:22:00,
2013-03-09 12:32:00,25.0,21.0,-100.00,WSW,257,6.0,14.0,84,0.00,,,0.00,276.000000,,2013-03-09 19:32:00,
2013-03-09 12:41:00,25.0,21.0,-100.00,WSW,257,6.0,14.0,84,0.00,,,0.00,276.000000,,2013-03-09 19:41:00,
2013-03-09 12:51:00,25.0,21.0,-100.00,WSW,257,6.0,14.0,84,0.00,,,0.00,276.000000,,2013-03-09 19:51:00,
2013-03-09 13:21:00,25.0,21.0,-100.00,WSW,243,5.0,13.0,85,0.00,,,0.00,235.000000,,2013-03-09 20:21:00,
2013-03-09 13:32:00,25.0,21.0,-100.00,WSW,243,5.0,13.0,85,0.00,,,0.00,235.000000,,2013-03-09 20:32:00,
2013-03-09 13:41:00,25.0,21.0,-100.00,WSW,243,5.0,13.0,85,0.00,,,0.00,235.000000,,2013-03-09 20:41:00,
2013-03-09 13:52:00,25.0,21.0,-100.00,WSW,243,5.0,13.0,85,0.00,,,0.00,235.000000,,2013-03-09 20:52:00,
2013-03-09 14:21:00,24.0,21.0,-100.00,North,5,11.0,18.0,87,0.00,,,0.00,207.000000,,2013-03-09 21:21:00,
2013-03-09 14:32:00,24.0,21.0,-100.00,North,5,11.0,18.0,87,0.00,,,0.00,207.000000,,2013-03-09 21:32:00,
2013-03-09 14:41:00,24.0,21.0,-100.00,North,5,11.0,18.0,87,0.00,,,0.00,207.000000,,2013-03-09 21:41:00,
2013-03-09 14:51:00,24.0,21.0,-100.00,North,5,11.0,18.0,87,0.00,,,0.00,207.000000,,2013-03-09 21:51:00,
2013-03-09 15:21:00,23.0,20.0,-100.00,North,358,10.0,19.0,87,0.00,,,0.00,220.000000,,2013-03-09 22:21:00,
2013-03-09 15:32:00,23.0,20.0,-100.00,North,358,10.0,19.0,87,0.00,,,0.00,220.000000,,2013-03-09 22:32:00,
2013-03-09 15:41:00,23.0,20.0,-100.00,North,358,10.0,19.0,87,0.00,,,0.00,220.000000,,2013-03-09 22:41:00,
2013-03-09 15:51:00,23.0,20.0,-100.00,North,358,10.0,19.0,87,0.00,,,0.00,220.000000,,2013-03-09 22:51:00,
2013-03-09 16:21:00,21.0,18.0,-100.00,North,1,11.0,21.0,89,0.00,,,0.00,145.000000,,2013-03-09 23:21:00,
2013-03-09 16:32:00,21.0,18.0,-100.00,North,1,11.0,21.0,89,0.00,,,0.00,145.000000,,2013-03-09 23:32:00,
2013-03-09 16:41:00,21.0,18.0,-100.00,North,1,11.0,21.0,89,0.00,,,0.00,145.000000,,2013-03-09 23:41:00,
2013-03-09 16:52:00,21.0,18.0,-100.00,North,1,11.0,21.0,89,0.00,,,0.00,145.000000,,2013-03-09 23:52:00,
2013-03-09 17:22:00,20.0,17.0,-100.00,North,352,15.0,28.0,89,0.00,,,0.00,137.000000,,2013-03-10 00:22:00,
2013-03-09 17:32:00,20.0,17.0,-100.00,North,352,15.0,28.0,89,0.00,,,0.00,137.000000,,2013-03-10 00:32:00,
2013-03-09 17:42:00,20.0,17.0,-100.00,North,352,15.0,28.0,89,0.00,,,0.00,137.000000,,2013-03-10 00:42:00,
2013-03-09 17:51:00,20.0,17.0,-100.00,North,352,15.0,28.0,89,0.00,,,0.00,137.000000,,2013-03-10 00:51:00,
2013-03-09 18:21:00,19.0,17.0,-100.00,North,11,15.0,28.0,90,0.00,,,0.00,57.000000,,2013-03-10 01:21:00,
2013-03-09 18:31:00,19.0,17.0,-100.00,North,11,15.0,28.0,90,0.00,,,0.00,57.000000,,2013-03-10 01:31:00,
2013-03-09 18:41:00,19.0,17.0,-100.00,North,11,15.0,28.0,90,0.00,,,0.00,57.000000,,2013-03-10 01:41:00,
2013-03-09 18:51:00,19.0,17.0,-100.00,North,11,15.0,28.0,90,0.00,,,0.00,57.000000,,2013-03-10 01:51:00,
2013-03-09 19:22:00,18.0,16.0,-100.00,North,6,10.0,21.0,90,0.00,,,-99.99,4.000000,,2013-03-10 02:22:00,
2013-03-09 19:31:00,18.0,16.0,-100.00,North,6,10.0,21.0,90,0.00,,,-99.99,4.000000,,2013-03-10 02:31:00,
2013-03-09 19:41:00,18.0,16.0,-100.00,North,6,10.0,21.0,90,0.00,,,-99.99,4.000000,,2013-03-10 02:41:00,
2013-03-09 19:52:00,18.0,16.0,-100.00,North,6,10.0,21.0,90,0.00,,,-99.99,4.000000,,2013-03-10 02:52:00,
2013-03-09 20:11:00,16.0,13.0,-100.00,North,349,8.0,19.0,89,0.00,,,-99.99,0.000000,,2013-03-10 03:11:00,
2013-03-09 20:22:00,16.0,13.0,-100.00,North,349,8.0,19.0,89,0.00,,,-99.99,0.000000,,2013-03-10 03:22:00,
2013-03-09 20:31:00,16.0,13.0,-100.00,North,349,8.0,19.0,89,0.00,,,-99.99,0.000000,,2013-03-10 03:31:00,
2013-03-09 20:42:00,16.0,13.0,-100.00,North,349,8.0,19.0,89,0.00,,,-99.99,0.000000,,2013-03-10 03:42:00,
2013-03-09 20:52:00,16.0,13.0,-100.00,North,349,8.0,19.0,89,0.00,,,-99.99,0.000000,,2013-03-10 03:52:00,
2013-03-09 21:21:00,14.0,11.0,-100.00,North,10,13.0,21.0,87,0.00,,,0.00,0.000000,,2013-03-10 04:21:00,
2013-03-09 21:31:00,14.0,11.0,-100.00,North,10,13.0,21.0,87,0.00,,,0.00,0.000000,,2013-03-10 04:31:00,
2013-03-09 21:41:00,14.0,11.0,-100.00,North,10,13.0,21.0,87,0.00,,,0.00,0.000000,,2013-03-10 04:41:00,
2013-03-09 21:51:00,14.0,11.0,-100.00,North,10,13.0,21.0,87,0.00,,,0.00,0.000000,,2013-03-10 04:51:00,
2013-03-09 22:22:00,13.0,8.0,-100.00,NNE,16,14.0,24.0,81,0.00,,,0.00,0.000000,,2013-03-10 05:22:00,
2013-03-09 22:31:00,13.0,8.0,-100.00,NNE,16,14.0,24.0,81,0.00,,,0.00,0.000000,,2013-03-10 05:31:00,
2013-03-09 22:42:00,13.0,8.0,-100.00,NNE,16,14.0,24.0,81,0.00,,,0.00,0.000000,,2013-03-10 05:42:00,
2013-03-09 22:52:00,13.0,8.0,-100.00,NNE,16,14.0,24.0,81,0.00,,,0.00,0.000000,,2013-03-10 05:52:00,
2013-03-09 23:21:00,12.0,7.0,-100.00,North,5,10.0,24.0,79,0.00,,,0.00,0.000000,,2013-03-10 06:21:00,
2013-03-09 23:32:00,12.0,7.0,-100.00,North,5,10.0,24.0,79,0.00,,,0.00,0.000000,,2013-03-10 06:32:00,
2013-03-09 23:41:00,12.0,7.0,-100.00,North,5,10.0,24.0,79,0.00,,,0.00,0.000000,,2013-03-10 06:41:00,
2013-03-09 23:51:00,12.0,7.0,-100.00,North,5,10.0,24.0,79,0.00,,,0.00,0.000000,,2013-03-10 06:51:00,